Darwin, Northern Territory

6:30 PM ACST on February 10, 2016 (GMT +0930)
Darwin International

Weather History for YPDN - July, 2013

Change the Weather History Date:

Friday, July 5, 2013

  Actual Average Record
Temperature  
Mean Temperature 77 °F -  
Max Temperature 87 °F 87 °F 91 °F (2005)
Min Temperature 67 °F 67 °F 60 °F (2006)
Cooling Degree Days 12    
Growing Degree Days 27 (Base 50)    
Moisture  
Dew Point 66 °F    
Average Humidity 70    
Maximum Humidity 94    
Minimum Humidity 29    
Precipitation  
Precipitation 0.00 in 0.00 in - ()
Sea Level Pressure  
Sea Level Pressure 29.87 in    
Wind  
Wind Speed 7 mph ()    
Max Wind Speed 16 mph    
Max Gust Speed -    
Visibility 9.6 miles    
Events      
Averages and records for this station are not official NWS values.
T = Trace of Precipitation, MM = Missing Value Source: Averaged Metar Reports

Daily Weather History Graph

Daily Weather History Graph

Search for Another Location

Airport or City:

Trip Planner

Search our weather history database for the weather conditions in past years. The results will help you decide how hot, cold, wet, or windy it might be!

Date:

Astronomy

Jul. 05, 2013 Rise Set
Actual Time 7:08 AM ACST 6:33 PM ACST
Civil Twilight 6:45 AM ACST 6:56 PM ACST
Nautical Twilight 6:19 AM ACST 7:23 PM ACST
Astronomical Twilight 5:52 AM ACST 7:49 PM ACST
Moon 4:25 AM ACST (7/5) 4:11 PM ACST (7/5)
Length of Visible Light 12h 10m
Length of Day
11h 25m
Waning Crescent, 9% of the Moon is Illuminated
Jul 5
Waning Crescent
Jul 8
New
Jul 16
First Quarter
Jul 23
Full
Jul 30
Last Quarter

Hourly Weather History & Observations

Time (ACST) Temp. Heat Index Dew Point Humidity Pressure Visibility Wind Dir Wind Speed Gust Speed Precip Events Conditions
12:00 AM 73 °F - 69 °F 82% 29.90 in 19 mi WSW 4.6 mph - -   Partly Cloudy
12:00 AM 73.4 °F - 68.0 °F 83% 29.89 in - WSW 4.6 mph - N/A   Clear
12:30 AM 74 °F - 70 °F 83% 29.89 in - South 4.6 mph - -  
12:30 AM 75.2 °F - 69.8 °F 83% 29.89 in - South 4.6 mph - N/A   Clear
1:00 AM 73.4 °F - 69.8 °F 88% 29.89 in - South 4.6 mph - N/A   Clear
1:30 AM 73.4 °F - 69.8 °F 88% 29.89 in - SSE 5.8 mph - N/A   Clear
2:00 AM 73.4 °F - 69.8 °F 88% 29.89 in - South 5.8 mph - N/A   Clear
2:30 AM 71.6 °F - 69.8 °F 94% 29.89 in - SSE 6.9 mph - N/A   Clear
3:00 AM 72 °F - 69 °F 89% 29.88 in 12 mi South 6.9 mph - -   Smoke
3:00 AM 71.6 °F - 69.8 °F 94% 29.86 in - South 6.9 mph - N/A   Clear
3:30 AM 72 °F - 69 °F 88% 29.87 in - South 5.8 mph - -  
3:30 AM 71.6 °F - 69.8 °F 94% 29.86 in - South 5.8 mph - N/A   Clear
4:00 AM 71.6 °F - 69.8 °F 94% 29.86 in - SSW 6.9 mph - N/A   Clear
4:30 AM 69.8 °F - 66.2 °F 88% 29.86 in - ESE 3.5 mph - N/A   Clear
5:00 AM 68.0 °F - 66.2 °F 94% 29.86 in - Calm Calm - N/A   Clear
5:30 AM 68.0 °F - 66.2 °F 94% 29.86 in - Calm Calm - N/A   Clear
6:00 AM 67 °F - 65 °F 93% 29.87 in 12 mi ESE 4.6 mph - -   Smoke
6:00 AM 68.0 °F - 66.2 °F 94% 29.86 in - ESE 4.6 mph - N/A   Clear
6:30 AM 69 °F - 67 °F 92% 29.87 in - SSE 5.8 mph - -  
6:30 AM 69.8 °F - 68.0 °F 94% 29.86 in - SSE 5.8 mph - N/A   Clear
7:00 AM 69.8 °F - 68.0 °F 94% 29.86 in - South 6.9 mph - N/A   Clear
7:30 AM 69.8 °F - 68.0 °F 94% 29.89 in - SSE 8.1 mph - N/A   Clear
8:00 AM 71.6 °F - 68.0 °F 88% 29.89 in - SSE 6.9 mph - N/A   Clear
8:30 AM 73.4 °F - 60.8 °F 65% 29.89 in - SE 10.4 mph - N/A   Clear
9:00 AM 74 °F - 60 °F 53% 29.91 in 12 mi ESE 10.4 mph - -   Smoke
9:00 AM 73.4 °F - 60.8 °F 65% 29.92 in - ESE 10.4 mph - N/A   Clear
9:30 AM 77 °F - 59 °F 43% 29.92 in - ESE 16.1 mph - -  
9:30 AM 77.0 °F - 59.0 °F 54% 29.92 in - ESE 16.1 mph - N/A   Clear
10:00 AM 78.8 °F - 59.0 °F 51% 29.92 in - ESE 13.8 mph - N/A   Clear
10:30 AM 80.6 °F 81.8 °F 62.6 °F 54% 29.92 in 6.2 mi East 13.8 mph - N/A   Partly Cloudy
11:00 AM 82.4 °F 83.9 °F 64.4 °F 54% 29.92 in 6.2 mi ENE 15.0 mph - N/A   Partly Cloudy
11:30 AM 82.4 °F 83.9 °F 64.4 °F 54% 29.89 in 6.2 mi ENE 15.0 mph - N/A   Partly Cloudy
12:00 PM 83 °F - 63 °F 41% 29.89 in 16 mi East 15.0 mph - -   Smoke
12:00 PM 84.2 °F 85.0 °F 62.6 °F 48% 29.89 in 6.2 mi East 15.0 mph - N/A   Partly Cloudy
12:30 PM 84 °F - 61 °F 35% 29.88 in - East 12.7 mph - -  
12:30 PM 84.2 °F 84.4 °F 60.8 °F 45% 29.86 in 6.2 mi East 12.7 mph - N/A   Partly Cloudy
1:00 PM 86.0 °F 85.4 °F 59.0 °F 40% 29.86 in 6.2 mi East 13.8 mph - N/A   Partly Cloudy
1:30 PM 86.0 °F 86.1 °F 60.8 °F 43% 29.83 in 6.2 mi East 12.7 mph - N/A   Partly Cloudy
2:00 PM 87.8 °F 87.1 °F 59.0 °F 38% 29.83 in - East 9.2 mph - N/A   Clear
2:30 PM 87.8 °F 87.1 °F 59.0 °F 38% 29.83 in - ESE 6.9 mph - N/A   Clear
3:00 PM 87 °F - 59 °F 29% 29.82 in 9 mi North 9.2 mph - -   Smoke
3:00 PM 87.8 °F 87.1 °F 59.0 °F 38% 29.80 in - North 9.2 mph - N/A   Clear
3:30 PM 87 °F - 65 °F 38% 29.81 in - NNW 12.7 mph - -  
3:30 PM 86.0 °F 87.3 °F 64.4 °F 48% 29.80 in - NNW 12.7 mph - N/A   Clear
4:00 PM 84.2 °F 86.6 °F 66.2 °F 55% 29.80 in - NNW 12.7 mph - N/A   Clear
4:30 PM 84.2 °F 86.6 °F 66.2 °F 55% 29.80 in - North 10.4 mph - N/A   Clear
5:00 PM 82.4 °F 84.6 °F 66.2 °F 58% 29.80 in - NNW 11.5 mph - N/A   Clear
5:30 PM 82.4 °F 84.6 °F 66.2 °F 58% 29.83 in - North 11.5 mph - N/A   Clear
6:00 PM 80 °F - 67 °F 56% 29.83 in 12 mi North 9.2 mph - -   Smoke
6:00 PM 80.6 °F 82.7 °F 66.2 °F 61% 29.83 in 6.2 mi North 9.2 mph - N/A   Partly Cloudy
6:30 PM 79 °F - 68 °F 61% 29.84 in - North 8.1 mph - -  
6:30 PM 78.8 °F - 68.0 °F 69% 29.83 in - North 8.1 mph - N/A   Clear
7:00 PM 77.0 °F - 68.0 °F 74% 29.83 in - North 6.9 mph - N/A   Clear
7:30 PM 77.0 °F - 69.8 °F 78% 29.86 in - North 6.9 mph - N/A   Clear
8:00 PM 77.0 °F - 69.8 °F 78% 29.86 in - North 8.1 mph - N/A   Clear
8:30 PM 75.2 °F - 69.8 °F 83% 29.89 in - North 6.9 mph - N/A   Clear
9:00 PM 75 °F - 70 °F 81% 29.89 in 12 mi NNE 4.6 mph - -   Smoke
9:00 PM 75.2 °F - 69.8 °F 83% 29.89 in - NNE 4.6 mph - N/A   Clear
9:30 PM 75 °F - 70 °F 79% 29.91 in - NE 3.5 mph - -  
9:30 PM 75.2 °F - 69.8 °F 83% 29.89 in - NE 3.5 mph - N/A   Clear
10:00 PM 75.2 °F - 69.8 °F 83% 29.92 in - South 5.8 mph - N/A   Clear
10:30 PM 75.2 °F - 69.8 °F 83% 29.92 in - South 5.8 mph - N/A   Clear
11:00 PM 75.2 °F - 71.6 °F 89% 29.92 in - South 8.1 mph - N/A   Clear
11:30 PM 73.4 °F - 69.8 °F 88% 29.89 in - South 6.9 mph - N/A   Clear